This demonstration page uses our WeatherBlox Daily Observations layout. Learn more.

Left ArrowRight Arrow

Hourly Observations for September 15, 2015

Temp ( °F °C ) Dew Point ( °F °C ) Humidity (%) Winds ( mph kmh ) Pressure ( in mb ) Visibility ( mi km ) Precip ( " mm )
12:52 am 00:52 Mostly Cloudy 72 22.2 61 16.1 68 68 S 17 28 29.85 1011 10 16 0.00 0.00
1:52 am 01:52 Mostly Cloudy 72 22.2 61 16.1 68 68 SSE 16 26 29.85 1011 10 16 0.00 0.00
2:52 am 02:52 Partly Cloudy 70 21.1 61 16.1 73 73 SSE 16 26 29.84 1011 10 16 0.00 0.00
3:52 am 03:52 Mostly Clear 69 20.6 60 15.6 73 73 SSE 16 26 29.84 1010 10 16 0.00 0.00
4:52 am 04:52 Mostly Clear 68 20 60 15.6 76 76 SSE 14 22 29.83 1010 10 16 0.00 0.00
5:52 am 05:52 Partly Cloudy 69 20.6 59 15 70 70 SSE 18 30 29.83 1010 10 16 0.00 0.00
6:52 am 06:52 Mostly Clear 68 20 58 14.4 70 70 SSE 16 26 29.83 1010 10 16 0.00 0.00
7:52 am 07:52 Mostly Sunny 70 21.1 56 13.3 61 61 S 20 31 29.84 1011 10 16 0.00 0.00
8:52 am 08:52 Mostly Sunny 72 22.2 56 13.3 57 57 SSE 25 41 29.84 1011 10 16 0.00 0.00
9:52 am 09:52 Mostly Sunny 74 23.3 55 12.8 52 52 SSE 30 48 29.85 1011 10 16 0.00 0.00
10:52 am 10:52 Mostly Sunny 77 25 56 13.3 48 48 S 29 46 29.84 1011 10 16 0.00 0.00
11:52 am 11:52 Partly Cloudy 81 27.2 57 13.9 44 44 S 22 35 29.83 1010 10 16 0.00 0.00
12:52 pm 12:52 Partly Cloudy 82 27.8 57 13.9 42 42 S 25 41 29.82 1010 10 16 0.00 0.00
1:52 pm 13:52 Partly Cloudy 84 28.9 59 15 43 43 SSE 21 33 29.81 1009 10 16 0.00 0.00
2:52 pm 14:52 Mostly Cloudy 88 31.1 59 15 38 38 S 25 41 29.79 1009 10 16 0.00 0.00
3:52 pm 15:52 Mostly Cloudy 87 30.6 62 16.7 43 43 SSE 23 37 29.78 1009 10 16 0.00 0.00
4:52 pm 16:52 Mostly Cloudy 86 30 63 17.2 46 46 SSE 25 41 29.78 1008 10 16 0.00 0.00
5:52 pm 17:52 Mostly Cloudy 86 30 62 16.7 45 45 S 23 37 29.78 1009 10 16 0.00 0.00
6:52 pm 18:52 Mostly Cloudy 84 28.9 62 16.7 48 48 SSE 28 44 29.80 1009 10 16 0.00 0.00
7:52 pm 19:52 Mostly Cloudy 81 27.2 62 16.7 53 53 SSE 22 35 29.82 1010 10 16 0.00 0.00
8:52 pm 20:52 Mostly Cloudy 79 26.1 63 17.2 58 58 SSE 23 37 29.85 1011 10 16 0.00 0.00
9:52 pm 21:52 Mostly Cloudy 78 25.6 64 17.8 62 62 S 22 35 29.87 1011 10 16 0.00 0.00
10:52 pm 22:52 Partly Cloudy 76 24.4 63 17.2 64 64 SSE 21 33 29.88 1012 10 16 0.00 0.00
11:52 pm 23:52 Partly Cloudy 73 22.8 63 17.2 71 71 SSE 17 28 29.90 1013 10 16 0.00 0.00

Powered by AerisWeather